PRIVATE WETTERSTATION BILLIGHEIM-ALLFELD                       ZURCK
Wetterdaten: Montag, 02.01.2017
Datum Zeit Temp. A. Temp. A. min Temp. A. max Feuchte A. Luftdruck Regen Wind Richtung Richtung Sonnenschein ET Solar Taupunkt Windchill Windben Empfang
02.01.2017 00:00 -2,9 C -2,9 C -2,9 C 92 % 1021,8 hPa 0,0 l/m 1,6 km/h (1 Bft) W 270 0 min 0,000 mm 0 W/m -4,0 C -2,9 C 6,4 km/h (2 Bft) 99 %
02.01.2017 00:10 -2,9 C -2,9 C -2,9 C 92 % 1021,8 hPa 0,0 l/m 1,6 km/h (1 Bft) W 270 0 min 0,000 mm 0 W/m -4,0 C -2,9 C 9,7 km/h (2 Bft) 99 %
02.01.2017 00:20 -2,9 C -2,9 C -2,9 C 92 % 1021,9 hPa 0,0 l/m 1,6 km/h (1 Bft) W-SW 247 0 min 0,000 mm 0 W/m -4,0 C -2,9 C 9,7 km/h (2 Bft) 99 %
02.01.2017 00:30 -2,8 C -2,9 C -2,8 C 92 % 1021,8 hPa 0,0 l/m 1,6 km/h (1 Bft) W-SW 247 0 min 0,000 mm 0 W/m -3,9 C -2,8 C 9,7 km/h (2 Bft) 100 %
02.01.2017 00:40 -2,8 C -2,9 C -2,8 C 92 % 1021,8 hPa 0,0 l/m 0,0 km/h (0 Bft) W 270 0 min 0,000 mm 0 W/m -3,9 C -2,8 C 4,8 km/h (1 Bft) 100 %
02.01.2017 00:50 -2,8 C -2,8 C -2,8 C 92 % 1021,7 hPa 0,0 l/m 0,0 km/h (0 Bft) W-SW 247 0 min 0,000 mm 0 W/m -3,9 C -2,8 C 11,3 km/h (2 Bft) 100 %
02.01.2017 01:00 -2,7 C -2,8 C -2,7 C 92 % 1021,8 hPa 0,0 l/m 1,6 km/h (1 Bft) W-SW 247 0 min 0,000 mm 0 W/m -3,8 C -2,7 C 11,3 km/h (2 Bft) 99 %
02.01.2017 01:10 -2,6 C -2,7 C -2,6 C 92 % 1021,8 hPa 0,0 l/m 1,6 km/h (1 Bft) W-SW 247 0 min 0,000 mm 0 W/m -3,7 C -2,6 C 11,3 km/h (2 Bft) 100 %
02.01.2017 01:20 -2,5 C -2,6 C -2,5 C 92 % 1021,5 hPa 0,0 l/m 3,2 km/h (1 Bft) W 270 0 min 0,000 mm 0 W/m -3,6 C -2,5 C 9,7 km/h (2 Bft) 100 %
02.01.2017 01:30 -2,4 C -2,5 C -2,4 C 92 % 1021,6 hPa 0,0 l/m 3,2 km/h (1 Bft) W 270 0 min 0,000 mm 0 W/m -3,5 C -2,4 C 14,5 km/h (3 Bft) 100 %
02.01.2017 01:40 -2,3 C -2,4 C -2,3 C 92 % 1021,7 hPa 0,0 l/m 4,8 km/h (1 Bft) W 270 0 min 0,000 mm 0 W/m -3,4 C -2,3 C 14,5 km/h (3 Bft) 100 %
02.01.2017 01:50 -2,3 C -2,4 C -2,3 C 92 % 1021,6 hPa 0,0 l/m 1,6 km/h (1 Bft) W 270 0 min 0,000 mm 0 W/m -3,4 C -2,3 C 11,3 km/h (2 Bft) 100 %
02.01.2017 02:00 -2,3 C -2,3 C -2,3 C 92 % 1021,7 hPa 0,0 l/m 1,6 km/h (1 Bft) W-SW 247 0 min 0,000 mm 0 W/m -3,4 C -2,3 C 11,3 km/h (2 Bft) 100 %
02.01.2017 02:10 -2,3 C -2,3 C -2,3 C 92 % 1021,6 hPa 0,0 l/m 1,6 km/h (1 Bft) W 270 0 min 0,000 mm 0 W/m -3,4 C -2,3 C 9,7 km/h (2 Bft) 99 %
02.01.2017 02:20 -2,2 C -2,3 C -2,2 C 92 % 1021,7 hPa 0,0 l/m 3,2 km/h (1 Bft) W-SW 247 0 min 0,000 mm 0 W/m -3,3 C -2,2 C 11,3 km/h (2 Bft) 100 %
02.01.2017 02:30 -2,2 C -2,2 C -2,2 C 92 % 1021,8 hPa 0,0 l/m 1,6 km/h (1 Bft) W-NW 292 0 min 0,000 mm 0 W/m -3,3 C -2,2 C 9,7 km/h (2 Bft) 100 %
02.01.2017 02:40 -2,2 C -2,2 C -2,2 C 92 % 1021,7 hPa 0,0 l/m 3,2 km/h (1 Bft) W 270 0 min 0,000 mm 0 W/m -3,3 C -2,2 C 14,5 km/h (3 Bft) 100 %
02.01.2017 02:50 -2,2 C -2,2 C -2,2 C 92 % 1021,6 hPa 0,0 l/m 1,6 km/h (1 Bft) W 270 0 min 0,000 mm 0 W/m -3,3 C -2,2 C 9,7 km/h (2 Bft) 100 %
02.01.2017 03:00 -2,1 C -2,2 C -2,1 C 92 % 1021,6 hPa 0,0 l/m 3,2 km/h (1 Bft) W-SW 247 0 min 0,000 mm 0 W/m -3,2 C -2,1 C 14,5 km/h (3 Bft) 100 %
02.01.2017 03:10 -2,1 C -2,1 C -2,1 C 92 % 1021,6 hPa 0,0 l/m 4,8 km/h (1 Bft) W 270 0 min 0,000 mm 0 W/m -3,2 C -2,1 C 11,3 km/h (2 Bft) 100 %
02.01.2017 03:20 -2,1 C -2,1 C -2,1 C 92 % 1021,6 hPa 0,0 l/m 1,6 km/h (1 Bft) W 270 0 min 0,000 mm 0 W/m -3,2 C -2,1 C 11,3 km/h (2 Bft) 99 %
02.01.2017 03:30 -2,1 C -2,1 C -2,1 C 92 % 1021,5 hPa 0,0 l/m 4,8 km/h (1 Bft) W 270 0 min 0,000 mm 0 W/m -3,2 C -2,1 C 19,3 km/h (3 Bft) 100 %
02.01.2017 03:40 -2,1 C -2,1 C -2,0 C 92 % 1021,6 hPa 0,0 l/m 4,8 km/h (1 Bft) W 270 0 min 0,000 mm 0 W/m -3,2 C -2,1 C 12,9 km/h (3 Bft) 100 %
02.01.2017 03:50 -2,0 C -2,1 C -2,0 C 92 % 1021,3 hPa 0,0 l/m 1,6 km/h (1 Bft) W-SW 247 0 min 0,000 mm 0 W/m -3,1 C -2,0 C 11,3 km/h (2 Bft) 100 %
02.01.2017 04:00 -2,0 C -2,0 C -2,0 C 92 % 1021,4 hPa 0,0 l/m 1,6 km/h (1 Bft) W 270 0 min 0,000 mm 0 W/m -3,1 C -2,0 C 8,0 km/h (2 Bft) 100 %
02.01.2017 04:10 -2,0 C -2,0 C -2,0 C 92 % 1021,4 hPa 0,0 l/m 3,2 km/h (1 Bft) W-SW 247 0 min 0,000 mm 0 W/m -3,1 C -2,0 C 14,5 km/h (3 Bft) 100 %
02.01.2017 04:20 -1,9 C -2,0 C -1,9 C 92 % 1021,4 hPa 0,0 l/m 3,2 km/h (1 Bft) SW 225 0 min 0,000 mm 0 W/m -3,0 C -1,9 C 14,5 km/h (3 Bft) 100 %
02.01.2017 04:30 -1,9 C -1,9 C -1,9 C 92 % 1021,2 hPa 0,0 l/m 1,6 km/h (1 Bft) W 270 0 min 0,000 mm 0 W/m -3,0 C -1,9 C 9,7 km/h (2 Bft) 100 %
02.01.2017 04:40 -1,9 C -1,9 C -1,9 C 92 % 1021,2 hPa 0,0 l/m 1,6 km/h (1 Bft) W-SW 247 0 min 0,000 mm 0 W/m -3,0 C -1,9 C 8,0 km/h (2 Bft) 100 %
02.01.2017 04:50 -1,9 C -1,9 C -1,9 C 92 % 1021,1 hPa 0,0 l/m 1,6 km/h (1 Bft) W-SW 247 0 min 0,000 mm 0 W/m -3,0 C -1,9 C 9,7 km/h (2 Bft) 90 %
02.01.2017 05:00 -1,9 C -1,9 C -1,9 C 92 % 1021,0 hPa 0,0 l/m 1,6 km/h (1 Bft) SW 225 0 min 0,000 mm 0 W/m -3,0 C -1,9 C 9,7 km/h (2 Bft) 100 %
02.01.2017 05:10 -1,8 C -1,9 C -1,8 C 92 % 1020,9 hPa 0,0 l/m 1,6 km/h (1 Bft) S-SW 202 0 min 0,000 mm 0 W/m -2,9 C -1,8 C 11,3 km/h (2 Bft) 100 %
02.01.2017 05:20 -1,8 C -1,8 C -1,8 C 92 % 1020,9 hPa 0,0 l/m 1,6 km/h (1 Bft) SW 225 0 min 0,000 mm 0 W/m -2,9 C -1,8 C 8,0 km/h (2 Bft) 100 %
02.01.2017 05:30 -1,7 C -1,8 C -1,7 C 92 % 1021,0 hPa 0,0 l/m 1,6 km/h (1 Bft) SW 225 0 min 0,000 mm 0 W/m -2,8 C -1,7 C 9,7 km/h (2 Bft) 100 %
02.01.2017 05:40 -1,7 C -1,8 C -1,7 C 92 % 1021,0 hPa 0,0 l/m 0,0 km/h (0 Bft) SW 225 0 min 0,000 mm 0 W/m -2,8 C -1,7 C 6,4 km/h (2 Bft) 100 %
02.01.2017 05:50 -1,7 C -1,7 C -1,7 C 92 % 1021,0 hPa 0,0 l/m 1,6 km/h (1 Bft) SW 225 0 min 0,000 mm 0 W/m -2,8 C -1,7 C 8,0 km/h (2 Bft) 100 %
02.01.2017 06:00 -1,6 C -1,7 C -1,6 C 92 % 1020,8 hPa 0,0 l/m 1,6 km/h (1 Bft) SW 225 0 min 0,000 mm 0 W/m -2,7 C -1,6 C 9,7 km/h (2 Bft) 100 %
02.01.2017 06:10 -1,6 C -1,6 C -1,6 C 92 % 1020,8 hPa 0,0 l/m 4,8 km/h (1 Bft) SW 225 0 min 0,000 mm 0 W/m -2,7 C -1,6 C 14,5 km/h (3 Bft) 88 %
02.01.2017 06:20 -1,5 C -1,6 C -1,5 C 92 % 1020,8 hPa 0,0 l/m 4,8 km/h (1 Bft) SW 225 0 min 0,000 mm 0 W/m -2,6 C -1,5 C 14,5 km/h (3 Bft) 100 %
02.01.2017 06:30 -1,5 C -1,5 C -1,4 C 92 % 1020,8 hPa 0,0 l/m 4,8 km/h (1 Bft) SW 225 0 min 0,000 mm 0 W/m -2,6 C -1,5 C 9,7 km/h (2 Bft) 100 %
02.01.2017 06:40 -1,4 C -1,5 C -1,4 C 92 % 1020,9 hPa 0,0 l/m 1,6 km/h (1 Bft) SW 225 0 min 0,000 mm 0 W/m -2,5 C -1,4 C 9,7 km/h (2 Bft) 100 %
02.01.2017 06:50 -1,4 C -1,4 C -1,4 C 92 % 1020,7 hPa 0,0 l/m 1,6 km/h (1 Bft) S-SW 202 0 min 0,000 mm 0 W/m -2,5 C -1,4 C 11,3 km/h (2 Bft) 100 %
02.01.2017 07:00 -1,4 C -1,4 C -1,4 C 92 % 1020,8 hPa 0,0 l/m 3,2 km/h (1 Bft) S-SW 202 0 min 0,000 mm 0 W/m -2,5 C -1,4 C 11,3 km/h (2 Bft) 100 %
02.01.2017 07:10 -1,4 C -1,4 C -1,4 C 92 % 1021,0 hPa 0,0 l/m 3,2 km/h (1 Bft) SW 225 0 min 0,000 mm 0 W/m -2,5 C -1,4 C 9,7 km/h (2 Bft) 98 %
02.01.2017 07:20 -1,3 C -1,4 C -1,3 C 92 % 1020,9 hPa 0,0 l/m 1,6 km/h (1 Bft) S-SW 202 0 min 0,000 mm 0 W/m -2,4 C -1,3 C 8,0 km/h (2 Bft) 100 %
02.01.2017 07:30 -1,3 C -1,4 C -1,3 C 92 % 1020,9 hPa 0,0 l/m 0,0 km/h (0 Bft) N 0 0 min 0,000 mm 0 W/m -2,4 C -1,3 C 0,0 km/h (0 Bft) 100 %
02.01.2017 07:40 -1,3 C -1,3 C -1,3 C 92 % 1020,9 hPa 0,0 l/m 1,6 km/h (1 Bft) S 180 0 min 0,000 mm 0 W/m -2,4 C -1,3 C 8,0 km/h (2 Bft) 100 %
02.01.2017 07:50 -1,3 C -1,3 C -1,3 C 92 % 1020,9 hPa 0,0 l/m 0,0 km/h (0 Bft) S-SW 202 0 min 0,000 mm 0 W/m -2,4 C -1,3 C 6,4 km/h (2 Bft) 100 %
02.01.2017 08:00 -1,2 C -1,3 C -1,2 C 92 % 1020,9 hPa 0,0 l/m 1,6 km/h (1 Bft) S-SW 202 0 min 0,000 mm 0 W/m -2,3 C -1,2 C 6,4 km/h (2 Bft) 100 %
02.01.2017 08:10 -1,2 C -1,2 C -1,2 C 92 % 1020,9 hPa 0,0 l/m 4,8 km/h (1 Bft) S-SW 202 0 min 0,000 mm 0 W/m -2,3 C -1,2 C 11,3 km/h (2 Bft) 100 %
02.01.2017 08:20 -1,1 C -1,2 C -1,1 C 92 % 1020,9 hPa 0,0 l/m 1,6 km/h (1 Bft) SW 225 0 min 0,000 mm 0 W/m -2,2 C -1,1 C 9,7 km/h (2 Bft) 100 %
02.01.2017 08:30 -1,0 C -1,1 C -1,0 C 92 % 1021,1 hPa 0,0 l/m 0,0 km/h (0 Bft) W-SW 247 0 min 0,000 mm 0 W/m -2,1 C -1,0 C 8,0 km/h (2 Bft) 100 %
02.01.2017 08:40 -0,9 C -1,0 C -0,9 C 92 % 1021,1 hPa 0,0 l/m 3,2 km/h (1 Bft) SW 225 0 min 0,000 mm 0 W/m -2,0 C -0,9 C 11,3 km/h (2 Bft) 100 %
02.01.2017 08:50 -0,9 C -1,0 C -0,9 C 92 % 1021,2 hPa 0,0 l/m 3,2 km/h (1 Bft) W 270 0 min 0,000 mm 0 W/m -2,0 C -0,9 C 11,3 km/h (2 Bft) 100 %
02.01.2017 09:00 -0,9 C -0,9 C -0,9 C 92 % 1021,2 hPa 0,2 l/m 1,6 km/h (1 Bft) W-SW 247 0 min 0,000 mm 0 W/m -2,0 C -0,9 C 11,3 km/h (2 Bft) 100 %
02.01.2017 09:10 -0,8 C -0,9 C -0,8 C 92 % 1021,1 hPa 0,0 l/m 4,8 km/h (1 Bft) SW 225 0 min 0,000 mm 5 W/m -1,9 C -0,8 C 17,7 km/h (3 Bft) 100 %
02.01.2017 09:20 -0,8 C -0,8 C -0,8 C 92 % 1021,2 hPa 0,0 l/m 1,6 km/h (1 Bft) W-SW 247 0 min 0,000 mm 7 W/m -1,9 C -0,8 C 11,3 km/h (2 Bft) 100 %
02.01.2017 09:30 -0,8 C -0,8 C -0,8 C 92 % 1021,3 hPa 0,0 l/m 3,2 km/h (1 Bft) W 270 0 min 0,000 mm 5 W/m -1,9 C -0,8 C 14,5 km/h (3 Bft) 100 %
02.01.2017 09:40 -0,8 C -0,8 C -0,7 C 92 % 1021,3 hPa 0,0 l/m 1,0 km/h (0 Bft) W-SW 248 0 min 0,000 mm 5 W/m -1,9 C -0,8 C 4,8 km/h (1 Bft) 100 %
02.01.2017 09:50 -0,7 C -0,8 C -0,7 C 92 % 1021,3 hPa 0,0 l/m 2,1 km/h (1 Bft) W 264 0 min 0,000 mm 7 W/m -1,8 C -0,7 C 9,7 km/h (2 Bft) 100 %
02.01.2017 10:00 -0,7 C -0,7 C -0,7 C 92 % 1021,3 hPa 0,2 l/m 2,6 km/h (1 Bft) W-NW 290 0 min 0,000 mm 16 W/m -1,8 C -0,7 C 8,0 km/h (2 Bft) 92 %
02.01.2017 10:10 -0,7 C -0,7 C -0,7 C 92 % 1021,3 hPa 0,0 l/m 5,0 km/h (1 Bft) W-SW 258 0 min 0,000 mm 19 W/m -1,8 C -0,7 C 16,1 km/h (3 Bft) 100 %
02.01.2017 10:20 -0,6 C -0,7 C -0,6 C 92 % 1021,4 hPa 0,0 l/m 2,0 km/h (1 Bft) W-SW 246 0 min 0,000 mm 21 W/m -1,7 C -0,6 C 9,7 km/h (2 Bft) 100 %
02.01.2017 10:30 -0,5 C -0,6 C -0,5 C 92 % 1021,5 hPa 0,0 l/m 4,5 km/h (1 Bft) W-SW 254 0 min 0,000 mm 16 W/m -1,6 C -0,5 C 11,3 km/h (2 Bft) 100 %
02.01.2017 10:40 -0,4 C -0,5 C -0,4 C 92 % 1021,6 hPa 0,0 l/m 2,2 km/h (1 Bft) W 266 0 min 0,000 mm 18 W/m -1,5 C -0,4 C 14,5 km/h (3 Bft) 100 %
02.01.2017 10:50 -0,3 C -0,4 C -0,3 C 92 % 1021,7 hPa 0,2 l/m 2,7 km/h (1 Bft) W-SW 243 0 min 0,000 mm 12 W/m -1,4 C -0,3 C 9,7 km/h (2 Bft) 100 %
02.01.2017 11:00 -0,3 C -0,3 C -0,3 C 92 % 1021,8 hPa 0,0 l/m 2,5 km/h (1 Bft) W-NW 288 0 min 0,000 mm 19 W/m -1,4 C -0,3 C 11,3 km/h (2 Bft) 100 %
02.01.2017 11:10 -0,2 C -0,3 C -0,2 C 92 % 1021,9 hPa 0,0 l/m 1,1 km/h (1 Bft) W 267 0 min 0,000 mm 18 W/m -1,3 C -0,2 C 8,0 km/h (2 Bft) 99 %
02.01.2017 11:20 -0,2 C -0,2 C -0,2 C 92 % 1021,9 hPa 0,0 l/m 2,2 km/h (1 Bft) W 275 0 min 0,000 mm 21 W/m -1,3 C -0,2 C 9,7 km/h (2 Bft) 100 %
02.01.2017 11:30 -0,1 C -0,2 C -0,1 C 92 % 1021,8 hPa 0,0 l/m 3,2 km/h (1 Bft) W 265 0 min 0,000 mm 26 W/m -1,2 C -0,1 C 9,7 km/h (2 Bft) 100 %
02.01.2017 11:40 -0,2 C -0,2 C -0,1 C 92 % 1021,9 hPa 0,2 l/m 4,3 km/h (1 Bft) W 265 0 min 0,000 mm 18 W/m -1,3 C -0,2 C 14,5 km/h (3 Bft) 100 %
02.01.2017 11:50 -0,2 C -0,2 C -0,2 C 92 % 1021,7 hPa 0,0 l/m 3,3 km/h (1 Bft) W 279 0 min 0,000 mm 25 W/m -1,3 C -0,2 C 9,7 km/h (2 Bft) 100 %
02.01.2017 12:00 -0,2 C -0,2 C -0,2 C 92 % 1021,7 hPa 0,0 l/m 0,4 km/h (0 Bft) W 263 0 min 0,000 mm 32 W/m -1,3 C -0,2 C 8,0 km/h (2 Bft) 91 %
02.01.2017 12:10 -0,1 C -0,2 C -0,1 C 92 % 1021,7 hPa 0,0 l/m 0,7 km/h (0 Bft) W 259 0 min 0,000 mm 30 W/m -1,2 C -0,1 C 6,4 km/h (2 Bft) 100 %
02.01.2017 12:20 0,0 C -0,1 C 0,0 C 92 % 1021,6 hPa 0,2 l/m 2,0 km/h (1 Bft) W 262 0 min 0,000 mm 49 W/m -1,1 C 0,0 C 12,9 km/h (3 Bft) 100 %
02.01.2017 12:30 0,0 C 0,0 C 0,1 C 92 % 1021,7 hPa 0,0 l/m 3,1 km/h (1 Bft) W 265 0 min 0,000 mm 53 W/m -1,1 C 0,0 C 9,7 km/h (2 Bft) 100 %
02.01.2017 12:40 0,0 C 0,0 C 0,1 C 92 % 1021,8 hPa 0,0 l/m 5,6 km/h (1 Bft) W 269 0 min 0,000 mm 70 W/m -1,1 C 0,0 C 14,5 km/h (3 Bft) 100 %
02.01.2017 12:50 0,1 C 0,0 C 0,1 C 92 % 1021,6 hPa 0,0 l/m 4,3 km/h (1 Bft) W-SW 248 0 min 0,000 mm 76 W/m -1,0 C 0,1 C 14,5 km/h (3 Bft) 91 %
02.01.2017 13:00 0,0 C 0,0 C 0,1 C 92 % 1021,6 hPa 0,0 l/m 5,9 km/h (2 Bft) W-SW 256 0 min 0,025 mm 91 W/m -1,1 C 0,0 C 16,1 km/h (3 Bft) 100 %
02.01.2017 13:10 -0,1 C -0,1 C 0,0 C 92 % 1021,6 hPa 0,0 l/m 2,9 km/h (1 Bft) W 273 0 min 0,000 mm 77 W/m -1,2 C -0,1 C 11,3 km/h (2 Bft) 100 %
02.01.2017 13:20 -0,1 C -0,1 C -0,1 C 92 % 1021,6 hPa 0,0 l/m 4,4 km/h (1 Bft) W 276 0 min 0,000 mm 69 W/m -1,2 C -0,1 C 16,1 km/h (3 Bft) 100 %
02.01.2017 13:30 -0,1 C -0,1 C -0,1 C 92 % 1021,6 hPa 0,0 l/m 2,6 km/h (1 Bft) W-NW 296 0 min 0,000 mm 58 W/m -1,2 C -0,1 C 9,7 km/h (2 Bft) 100 %
02.01.2017 13:40 -0,2 C -0,2 C -0,1 C 92 % 1021,7 hPa 0,0 l/m 2,1 km/h (1 Bft) W-NW 294 0 min 0,000 mm 35 W/m -1,3 C -0,2 C 9,7 km/h (2 Bft) 100 %
02.01.2017 13:50 -0,2 C -0,2 C -0,2 C 92 % 1021,6 hPa 0,0 l/m 1,0 km/h (0 Bft) W-NW 284 0 min 0,000 mm 46 W/m -1,3 C -0,2 C 9,7 km/h (2 Bft) 100 %
02.01.2017 14:00 -0,2 C -0,2 C -0,2 C 92 % 1021,6 hPa 0,0 l/m 2,0 km/h (1 Bft) W 268 0 min 0,026 mm 51 W/m -1,3 C -0,2 C 8,0 km/h (2 Bft) 100 %
02.01.2017 14:10 -0,1 C -0,2 C -0,1 C 92 % 1021,7 hPa 0,0 l/m 2,6 km/h (1 Bft) W-NW 296 0 min 0,000 mm 49 W/m -1,2 C -0,1 C 11,3 km/h (2 Bft) 98 %
02.01.2017 14:20 -0,1 C -0,1 C 0,0 C 92 % 1021,8 hPa 0,0 l/m 4,3 km/h (1 Bft) W-NW 292 0 min 0,000 mm 44 W/m -1,2 C -0,1 C 16,1 km/h (3 Bft) 93 %
02.01.2017 14:30 -0,1 C -0,1 C 0,0 C 92 % 1021,8 hPa 0,0 l/m 4,6 km/h (1 Bft) W 277 0 min 0,000 mm 49 W/m -1,2 C -0,1 C 14,5 km/h (3 Bft) 100 %
02.01.2017 14:40 -0,1 C -0,1 C -0,1 C 92 % 1021,9 hPa 0,0 l/m 3,2 km/h (1 Bft) W-NW 282 0 min 0,000 mm 35 W/m -1,2 C -0,1 C 11,3 km/h (2 Bft) 100 %
02.01.2017 14:50 -0,1 C -0,2 C -0,1 C 92 % 1022,0 hPa 0,0 l/m 3,2 km/h (1 Bft) W-NW 283 0 min 0,000 mm 47 W/m -1,2 C -0,1 C 14,5 km/h (3 Bft) 100 %
02.01.2017 15:00 -0,1 C -0,1 C -0,1 C 92 % 1022,1 hPa 0,0 l/m 2,8 km/h (1 Bft) W 267 0 min 0,025 mm 40 W/m -1,2 C -0,1 C 9,7 km/h (2 Bft) 100 %
02.01.2017 15:10 0,0 C -0,1 C 0,0 C 92 % 1022,2 hPa 0,0 l/m 2,4 km/h (1 Bft) W-NW 284 0 min 0,000 mm 23 W/m -1,1 C 0,0 C 11,3 km/h (2 Bft) 100 %
02.01.2017 15:20 0,0 C 0,0 C 0,1 C 92 % 1022,4 hPa 0,0 l/m 2,6 km/h (1 Bft) W-NW 290 0 min 0,000 mm 19 W/m -1,1 C 0,0 C 8,0 km/h (2 Bft) 100 %
02.01.2017 15:30 0,1 C 0,0 C 0,1 C 92 % 1022,3 hPa 0,0 l/m 3,9 km/h (1 Bft) W-SW 246 0 min 0,000 mm 14 W/m -1,0 C 0,1 C 12,9 km/h (3 Bft) 100 %
02.01.2017 15:40 0,1 C 0,1 C 0,1 C 92 % 1022,5 hPa 0,0 l/m 3,5 km/h (1 Bft) W 261 0 min 0,000 mm 9 W/m -1,0 C 0,1 C 14,5 km/h (3 Bft) 100 %
02.01.2017 15:50 0,1 C 0,1 C 0,1 C 92 % 1022,4 hPa 0,0 l/m 2,5 km/h (1 Bft) W-NW 288 0 min 0,000 mm 14 W/m -1,0 C 0,1 C 9,7 km/h (2 Bft) 100 %
02.01.2017 16:00 0,1 C 0,1 C 0,1 C 92 % 1022,5 hPa 0,0 l/m 1,5 km/h (1 Bft) NW 322 0 min 0,000 mm 16 W/m -1,0 C 0,1 C 8,0 km/h (2 Bft) 100 %
02.01.2017 16:10 0,1 C 0,1 C 0,1 C 93 % 1022,5 hPa 0,0 l/m 0,1 km/h (0 Bft) W-SW 238 0 min 0,000 mm 21 W/m -0,9 C 0,1 C 3,2 km/h (1 Bft) 100 %
02.01.2017 16:20 -0,1 C -0,1 C 0,1 C 93 % 1022,6 hPa 0,0 l/m 1,2 km/h (1 Bft) W-SW 254 0 min 0,000 mm 7 W/m -1,1 C -0,1 C 8,0 km/h (2 Bft) 100 %
02.01.2017 16:30 -0,2 C -0,2 C 0,0 C 92 % 1022,6 hPa 0,0 l/m 1,9 km/h (1 Bft) W-NW 286 0 min 0,000 mm 0 W/m -1,3 C -0,2 C 8,0 km/h (2 Bft) 100 %
02.01.2017 16:40 -0,2 C -0,2 C -0,2 C 92 % 1022,6 hPa 0,0 l/m 1,1 km/h (1 Bft) W-SW 258 0 min 0,000 mm 0 W/m -1,3 C -0,2 C 8,0 km/h (2 Bft) 100 %
02.01.2017 16:50 -0,3 C -0,3 C -0,2 C 92 % 1022,6 hPa 0,0 l/m 1,0 km/h (0 Bft) W-SW 258 0 min 0,000 mm 0 W/m -1,4 C -0,3 C 6,4 km/h (2 Bft) 100 %
02.01.2017 17:00 -0,3 C -0,3 C -0,3 C 92 % 1022,6 hPa 0,0 l/m 0,1 km/h (0 Bft) W 267 0 min 0,000 mm 0 W/m -1,4 C -0,3 C 4,8 km/h (1 Bft) 100 %
02.01.2017 17:10 -0,2 C -0,3 C -0,2 C 92 % 1022,9 hPa 0,0 l/m 1,7 km/h (1 Bft) W-SW 253 0 min 0,000 mm 0 W/m -1,3 C -0,2 C 9,7 km/h (2 Bft) 100 %
02.01.2017 17:20 -0,1 C -0,2 C -0,1 C 92 % 1022,9 hPa 0,0 l/m 1,8 km/h (1 Bft) W-SW 241 0 min 0,000 mm 0 W/m -1,2 C -0,1 C 9,7 km/h (2 Bft) 99 %
02.01.2017 17:30 -0,1 C -0,2 C -0,1 C 93 % 1023,1 hPa 0,0 l/m 0,2 km/h (0 Bft) W 279 0 min 0,000 mm 0 W/m -1,1 C -0,1 C 6,4 km/h (2 Bft) 100 %
02.01.2017 17:40 -0,1 C -0,1 C -0,1 C 93 % 1023,1 hPa 0,0 l/m 0,0 km/h (0 Bft) W 279 0 min 0,000 mm 0 W/m -1,1 C -0,1 C 0,0 km/h (0 Bft) 100 %
02.01.2017 17:50 -0,1 C -0,1 C -0,1 C 93 % 1023,0 hPa 0,0 l/m 0,4 km/h (0 Bft) W 277 0 min 0,000 mm 0 W/m -1,1 C -0,1 C 4,8 km/h (1 Bft) 91 %
02.01.2017 18:00 -0,1 C -0,1 C -0,1 C 93 % 1023,1 hPa 0,0 l/m 0,0 km/h (0 Bft) W 277 0 min 0,000 mm 0 W/m -1,1 C -0,1 C 0,0 km/h (0 Bft) 100 %
02.01.2017 18:10 0,0 C -0,1 C 0,0 C 93 % 1023,3 hPa 0,0 l/m 0,0 km/h (0 Bft) W 277 0 min 0,000 mm 0 W/m -1,0 C 0,0 C 0,0 km/h (0 Bft) 100 %
02.01.2017 18:20 0,1 C 0,0 C 0,1 C 93 % 1023,4 hPa 0,0 l/m 0,0 km/h (0 Bft) W-SW 257 0 min 0,000 mm 0 W/m -0,9 C 0,1 C 0,0 km/h (0 Bft) 100 %
02.01.2017 18:30 0,0 C 0,0 C 0,1 C 93 % 1023,5 hPa 0,0 l/m 0,0 km/h (0 Bft) W-SW 257 0 min 0,000 mm 0 W/m -1,0 C 0,0 C 0,0 km/h (0 Bft) 100 %
02.01.2017 18:40 0,1 C -0,1 C 0,1 C 93 % 1023,5 hPa 0,0 l/m 0,0 km/h (0 Bft) W-SW 257 0 min 0,000 mm 0 W/m -0,9 C 0,1 C 0,0 km/h (0 Bft) 100 %
02.01.2017 18:50 0,2 C 0,1 C 0,2 C 92 % 1023,5 hPa 0,0 l/m 0,0 km/h (0 Bft) W-SW 257 0 min 0,000 mm 0 W/m -0,9 C 0,2 C 0,0 km/h (0 Bft) 100 %
02.01.2017 19:00 0,1 C 0,1 C 0,2 C 92 % 1023,8 hPa 0,0 l/m 0,9 km/h (0 Bft) W-SW 239 0 min 0,000 mm 0 W/m -1,0 C 0,1 C 6,4 km/h (2 Bft) 100 %
02.01.2017 19:10 0,1 C 0,1 C 0,1 C 92 % 1023,9 hPa 0,0 l/m 0,0 km/h (0 Bft) W-SW 238 0 min 0,000 mm 0 W/m -1,0 C 0,1 C 0,0 km/h (0 Bft) 91 %
02.01.2017 19:20 0,1 C 0,1 C 0,1 C 92 % 1024,0 hPa 0,0 l/m 0,0 km/h (0 Bft) W-SW 238 0 min 0,000 mm 0 W/m -1,0 C 0,1 C 0,0 km/h (0 Bft) 100 %
02.01.2017 19:30 0,1 C 0,1 C 0,1 C 92 % 1024,1 hPa 0,0 l/m 0,5 km/h (0 Bft) W 271 0 min 0,000 mm 0 W/m -1,0 C 0,1 C 6,4 km/h (2 Bft) 100 %
02.01.2017 19:40 0,0 C -0,1 C 0,1 C 93 % 1024,1 hPa 0,0 l/m 0,2 km/h (0 Bft) W-NW 282 0 min 0,000 mm 0 W/m -1,0 C 0,0 C 4,8 km/h (1 Bft) 100 %
02.01.2017 19:50 -0,1 C -0,1 C 0,0 C 93 % 1024,2 hPa 0,0 l/m 0,3 km/h (0 Bft) W 281 0 min 0,000 mm 0 W/m -1,1 C -0,1 C 4,8 km/h (1 Bft) 100 %
02.01.2017 20:00 -0,1 C -0,1 C -0,1 C 93 % 1024,4 hPa 0,0 l/m 0,0 km/h (0 Bft) W 281 0 min 0,000 mm 0 W/m -1,1 C -0,1 C 0,0 km/h (0 Bft) 100 %
02.01.2017 20:10 -0,1 C -0,1 C -0,1 C 93 % 1024,5 hPa 0,0 l/m 0,0 km/h (0 Bft) W-SW 248 0 min 0,000 mm 0 W/m -1,1 C -0,1 C 1,6 km/h (1 Bft) 100 %
02.01.2017 20:20 0,0 C -0,1 C 0,0 C 93 % 1024,5 hPa 0,0 l/m 0,0 km/h (0 Bft) W-SW 248 0 min 0,000 mm 0 W/m -1,0 C 0,0 C 0,0 km/h (0 Bft) 100 %
02.01.2017 20:30 0,1 C 0,0 C 0,1 C 92 % 1024,6 hPa 0,0 l/m 0,0 km/h (0 Bft) W-SW 248 0 min 0,000 mm 0 W/m -1,0 C 0,1 C 0,0 km/h (0 Bft) 100 %
02.01.2017 20:40 0,1 C 0,1 C 0,1 C 92 % 1024,7 hPa 0,0 l/m 0,8 km/h (0 Bft) W 273 0 min 0,000 mm 0 W/m -1,0 C 0,1 C 4,8 km/h (1 Bft) 100 %
02.01.2017 20:50 0,1 C 0,1 C 0,1 C 92 % 1024,8 hPa 0,0 l/m 0,4 km/h (0 Bft) W 261 0 min 0,000 mm 0 W/m -1,0 C 0,1 C 6,4 km/h (2 Bft) 100 %
02.01.2017 21:00 0,1 C 0,1 C 0,1 C 92 % 1025,0 hPa 0,0 l/m 0,4 km/h (0 Bft) W-NW 294 0 min 0,000 mm 0 W/m -1,0 C 0,1 C 6,4 km/h (2 Bft) 100 %
02.01.2017 21:10 0,1 C 0,1 C 0,1 C 92 % 1025,0 hPa 0,0 l/m 1,6 km/h (1 Bft) W-SW 247 0 min 0,000 mm 0 W/m -1,0 C 0,1 C 6,4 km/h (2 Bft) 100 %
02.01.2017 21:20 0,2 C 0,1 C 0,2 C 92 % 1025,1 hPa 0,0 l/m 0,0 km/h (0 Bft) W 270 0 min 0,000 mm 0 W/m -0,9 C 0,2 C 4,8 km/h (1 Bft) 100 %
02.01.2017 21:30 0,2 C 0,2 C 0,2 C 92 % 1025,2 hPa 0,0 l/m 0,0 km/h (0 Bft) W 270 0 min 0,000 mm 0 W/m -0,9 C 0,2 C 6,4 km/h (2 Bft) 100 %
02.01.2017 21:40 0,2 C 0,2 C 0,2 C 92 % 1025,3 hPa 0,0 l/m 1,6 km/h (1 Bft) W-NW 292 0 min 0,000 mm 0 W/m -0,9 C 0,2 C 6,4 km/h (2 Bft) 100 %
02.01.2017 21:50 0,3 C 0,2 C 0,3 C 93 % 1025,4 hPa 0,0 l/m 0,0 km/h (0 Bft) NW 315 0 min 0,000 mm 0 W/m -0,7 C 0,3 C 6,4 km/h (2 Bft) 100 %
02.01.2017 22:00 0,3 C 0,3 C 0,3 C 92 % 1025,3 hPa 0,0 l/m 0,0 km/h (0 Bft) W-NW 292 0 min 0,000 mm 0 W/m -0,8 C 0,3 C 6,4 km/h (2 Bft) 100 %
02.01.2017 22:10 0,2 C 0,2 C 0,3 C 92 % 1025,3 hPa 0,0 l/m 1,6 km/h (1 Bft) NW 315 0 min 0,000 mm 0 W/m -0,9 C 0,2 C 8,0 km/h (2 Bft) 99 %
02.01.2017 22:20 0,0 C 0,0 C 0,2 C 93 % 1025,4 hPa 0,0 l/m 1,6 km/h (1 Bft) NW 315 0 min 0,000 mm 0 W/m -1,0 C 0,0 C 6,4 km/h (2 Bft) 100 %
02.01.2017 22:30 -0,2 C -0,2 C 0,0 C 92 % 1025,4 hPa 0,0 l/m 0,0 km/h (0 Bft) NW 315 0 min 0,000 mm 0 W/m -1,3 C -0,2 C 4,8 km/h (1 Bft) 100 %
02.01.2017 22:40 -0,4 C -0,4 C -0,2 C 92 % 1025,5 hPa 0,0 l/m 0,0 km/h (0 Bft) N 0 0 min 0,000 mm 0 W/m -1,5 C -0,4 C 0,0 km/h (0 Bft) 100 %
02.01.2017 22:50 -0,7 C -0,7 C -0,4 C 93 % 1025,4 hPa 0,0 l/m 0,0 km/h (0 Bft) N 0 0 min 0,000 mm 0 W/m -1,7 C -0,7 C 0,0 km/h (0 Bft) 100 %
02.01.2017 23:00 -0,9 C -0,9 C -0,7 C 92 % 1025,5 hPa 0,0 l/m 0,0 km/h (0 Bft) N 0 0 min 0,000 mm 0 W/m -2,0 C -0,9 C 0,0 km/h (0 Bft) 91 %
02.01.2017 23:10 -0,9 C -0,9 C -0,8 C 92 % 1025,5 hPa 0,0 l/m 0,0 km/h (0 Bft) N 0 0 min 0,000 mm 0 W/m -2,0 C -0,9 C 0,0 km/h (0 Bft) 100 %
02.01.2017 23:20 -0,9 C -0,9 C -0,9 C 92 % 1025,5 hPa 0,0 l/m 1,6 km/h (1 Bft) W-NW 292 0 min 0,000 mm 0 W/m -2,0 C -0,9 C 8,0 km/h (2 Bft) 100 %
02.01.2017 23:30 -0,9 C -0,9 C -0,9 C 92 % 1025,5 hPa 0,0 l/m 0,0 km/h (0 Bft) NW 315 0 min 0,000 mm 0 W/m -2,0 C -0,9 C 4,8 km/h (1 Bft) 100 %
02.01.2017 23:40 -1,1 C -1,1 C -0,9 C 93 % 1025,6 hPa 0,0 l/m 0,0 km/h (0 Bft) NW 315 0 min 0,000 mm 0 W/m -2,1 C -1,1 C 3,2 km/h (1 Bft) 99 %
02.01.2017 23:50 -1,2 C -1,2 C -1,1 C 92 % 1025,7 hPa 0,0 l/m 0,0 km/h (0 Bft) W-NW 292 0 min 0,000 mm 0 W/m -2,3 C -1,2 C 6,4 km/h (2 Bft) 100 %
_ Min-Zeit 00:00 00:00 00:00 00:00 06:50 - 00:40 - - - - - 00:00 00:00 07:30 06:10
Minimum _ -2,9 C -2,9 C -2,9 C 92 % 1020,7 hPa - 0,0 km/h (0 Bft) - - - - - -4,0 C -2,9 C 0,0 km/h (0 Bft) 88 %
_ Max-Zeit 21:50 22:00 21:50 16:10 23:50 09:00 13:00 - - 00:00 14:00 13:00 21:50 21:50 03:30 00:30
Maximum _ 0,3 C 0,3 C 0,3 C 93 % 1025,7 hPa 0,2 l/m 5,9 km/h
W-SW (2 Bft)
- - 0 min 0,026 mm 91 W/m -0,7 C 0,3 C 19,3 km/h
W-SW (3 Bft)
100 %
Durchschnitt _ -0,8 C -0,9 C -0,8 C 92 % 1022,4 hPa #1,0 l/m 1,8 km/h (1 Bft) W - #0 min. #0,076 mm 31 W/m -1,9 C -0,8 C 8,6 km/h (2 Bft) 99 %
PRIVATE WETTERSTATION BILLIGHEIM-ALLFELD - www.neckar-odenwald-wetter.de - Holger Sonntag